Volver al catálogo

TIANMU-1 20

ActivoMeteoSSO
NORAD 58661·PAYLOAD·🇨🇳 China

Lanzado Dec 27, 2023 desde Jiuquan Satellite Launch Center

Loading…

Próximos Pases (próximas 24 horas)

TLE

ActualizadoSource: Space-Track

Época: Sep 14, 2026, 14:18 UTC

1 58661U 23208B   26257.59643274  .00006970  00000-0  21428-3 0  9995
2 58661  97.4523  15.1978 0006971  16.3893 343.7574 15.33987574151127

Sigue TIANMU-1 20 en tiempo real con AllMySat

Download on the App Store